When you browse on this site, cookies collect data to enhance your experience and personalize the content and advertising you see.
Visit our Privacy Policy to learn more. By continuing to use the site, you agree to this use of cookies and data.
  • In Spain
  • List of Countries
  • For 7 days
  • Water Temperature
  • Satellite Maps
  • Weather Map
  • Weather Widgets
  • user-avatar
    Login

    Hourly Weather Idlib

    Today, 17 December, Monday

    Time Temperature Precipitation Wind Pressure Humidity
    00:00 +9°C° 0 mm 6 mps 726 mmHg 79%
    01:00 +9°C° 0 mm 5 mps 726 mmHg 80%
    02:00 +9°C° 0 mm 5 mps 726 mmHg 80%
    03:00 +8°C° 0 mm 5 mps 725 mmHg 81%
    04:00 +8°C° 0 mm 5 mps 725 mmHg 81%
    05:00 +8°C° 0 mm 5 mps 725 mmHg 82%
    06:00 +8°C° 0 mm 5 mps 725 mmHg 81%
    07:00 +8°C° 0 mm 4 mps 725 mmHg 81%
    08:00 +8°C° 0 mm 4 mps 725 mmHg 80%
    09:00 +8°C° 0 mm 4 mps 725 mmHg 79%
    10:00 +10°C° 0 mm 4 mps 725 mmHg 77%
    11:00 +10°C° 0 mm 4 mps 725 mmHg 75%
    12:00 +10°C° 0.1 mm 4 mps 725 mmHg 75%
    13:00 +11°C° 0.1 mm 3 mps 725 mmHg 75%
    14:00 +11°C° 0.1 mm 3 mps 725 mmHg 75%
    15:00 +10°C° 0 mm 3 mps 725 mmHg 76%
    16:00 +10°C° 0 mm 3 mps 725 mmHg 78%
    17:00 +10°C° 0 mm 3 mps 725 mmHg 80%
    18:00 +10°C° 0.1 mm 3 mps 725 mmHg 81%
    19:00 +10°C° 0.1 mm 3 mps 725 mmHg 82%
    20:00 +10°C° 0.1 mm 3 mps 726 mmHg 83%
    21:00 +9°C° 0.1 mm 3 mps 726 mmHg 84%
    22:00 +9°C° 0.1 mm 3 mps 726 mmHg 85%
    23:00 +9°C° 0.1 mm 3 mps 726 mmHg 85%

    Tomorrow, 18 December, Tuesday

    Time Temperature Precipitation Wind Pressure Humidity
    00:00 +9°C° 0 mm 2 mps 726 mmHg 86%
    01:00 +9°C° 0 mm 2 mps 726 mmHg 87%
    02:00 +9°C° 0 mm 2 mps 726 mmHg 87%
    03:00 +9°C° 0 mm 2 mps 726 mmHg 87%
    04:00 +9°C° 0 mm 3 mps 726 mmHg 88%
    05:00 +9°C° 0 mm 3 mps 726 mmHg 88%
    06:00 +9°C° 0 mm 3 mps 726 mmHg 87%
    07:00 +9°C° 0 mm 3 mps 727 mmHg 87%
    08:00 +9°C° 0 mm 3 mps 727 mmHg 86%
    09:00 +10°C° 0 mm 3 mps 727 mmHg 82%
    10:00 +11°C° 0 mm 3 mps 727 mmHg 78%
    11:00 +12°C° 0 mm 3 mps 728 mmHg 74%
    12:00 +12°C° 0 mm 3 mps 727 mmHg 74%
    13:00 +13°C° 0 mm 3 mps 727 mmHg 73%
    14:00 +13°C° 0 mm 3 mps 727 mmHg 73%
    15:00 +12°C° 0.1 mm 3 mps 727 mmHg 75%
    16:00 +12°C° 0.1 mm 3 mps 727 mmHg 77%
    17:00 +12°C° 0.1 mm 3 mps 727 mmHg 79%
    18:00 +12°C° 0.1 mm 4 mps 727 mmHg 80%
    19:00 +11°C° 0.1 mm 4 mps 727 mmHg 81%
    20:00 +11°C° 0.1 mm 4 mps 727 mmHg 82%
    21:00 +11°C° 0 mm 4 mps 727 mmHg 83%
    22:00 +11°C° 0 mm 4 mps 727 mmHg 84%
    23:00 +10°C° 0 mm 4 mps 726 mmHg 84%

    Day after tomorrow, 19 December, Wednesday

    Time Temperature Precipitation Wind Pressure Humidity
    00:00 +10°C° 0.1 mm 4 mps 726 mmHg 85%
    01:00 +10°C° 0.1 mm 3 mps 726 mmHg 85%
    02:00 +10°C° 0.1 mm 3 mps 725 mmHg 86%
    03:00 +10°C° 0 mm 3 mps 725 mmHg 86%
    04:00 +10°C° 0 mm 3 mps 724 mmHg 87%
    05:00 +9°C° 0 mm 3 mps 724 mmHg 88%
    06:00 +10°C° 0.7 mm 3 mps 724 mmHg 86%
    07:00 +10°C° 0.7 mm 2 mps 724 mmHg 84%
    08:00 +10°C° 0.7 mm 2 mps 724 mmHg 82%
    09:00 +12°C° 1.8 mm 2 mps 724 mmHg 80%
    10:00 +12°C° 1.8 mm 2 mps 724 mmHg 78%
    11:00 +12°C° 1.8 mm 2 mps 724 mmHg 77%
    12:00 +12°C° 1.9 mm 2 mps 723 mmHg 80%
    13:00 +10°C° 1.9 mm 2 mps 723 mmHg 83%
    14:00 +10°C° 1.9 mm 2 mps 723 mmHg 86%
    15:00 +10°C° 0.6 mm 2 mps 723 mmHg 86%
    16:00 +11°C° 0.6 mm 1 mps 723 mmHg 86%
    17:00 +11°C° 0.6 mm 1 mps 723 mmHg 87%
    18:00 +11°C° 0.4 mm 1 mps 723 mmHg 87%
    19:00 +10°C° 0.4 mm 1 mps 723 mmHg 88%
    20:00 +10°C° 0.4 mm 1 mps 723 mmHg 89%
    21:00 +10°C° 0.2 mm 1 mps 723 mmHg 90%
    22:00 +10°C° 0.2 mm 1 mps 723 mmHg 90%
    23:00 +10°C° 0.2 mm 1 mps 723 mmHg 90%

    20 December, Thursday

    Time Temperature Precipitation Wind Pressure Humidity
    00:00 +10°C° 0.1 mm 1 mps 723 mmHg 90%
    01:00 +10°C° 0.1 mm 1 mps 723 mmHg 90%
    02:00 +10°C° 0.1 mm 1 mps 723 mmHg 90%
    03:00 +10°C° 0 mm 1 mps 723 mmHg 90%
    04:00 +10°C° 0 mm 1 mps 723 mmHg 90%
    05:00 +10°C° 0 mm 1 mps 723 mmHg 90%
    06:00 +10°C° 0 mm 1 mps 723 mmHg 89%
    07:00 +11°C° 0 mm 1 mps 724 mmHg 87%
    08:00 +11°C° 0 mm 1 mps 724 mmHg 85%
    09:00 +12°C° 0 mm 1 mps 725 mmHg 80%
    10:00 +13°C° 0 mm 1 mps 725 mmHg 76%
    11:00 +14°C° 0 mm 1 mps 725 mmHg 71%
    12:00 +14°C° 0.3 mm 1 mps 725 mmHg 69%
    13:00 +15°C° 0.3 mm 1 mps 725 mmHg 67%
    14:00 +15°C° 0.3 mm 1 mps 724 mmHg 64%
    15:00 +14°C° 0.3 mm 1 mps 725 mmHg 68%
    16:00 +13°C° 0.3 mm 1 mps 725 mmHg 72%
    17:00 +13°C° 0.3 mm 1 mps 725 mmHg 76%
    18:00 +12°C° 0.1 mm 1 mps 726 mmHg 77%
    19:00 +12°C° 0.1 mm 1 mps 726 mmHg 78%
    20:00 +12°C° 0.1 mm 1 mps 727 mmHg 80%
    21:00 +11°C° 0 mm 1 mps 727 mmHg 81%
    22:00 +11°C° 0 mm 1 mps 727 mmHg 82%
    23:00 +10°C° 0 mm 2 mps 727 mmHg 83%

    21 December, Friday

    Time Temperature Precipitation Wind Pressure Humidity
    00:00 +9°C° 0 mm 2 mps 727 mmHg 83%
    01:00 +10°C° 0 mm 1 mps 727 mmHg 84%
    02:00 +10°C° 0 mm 1 mps 727 mmHg 85%
    03:00 +10°C° 0 mm 1 mps 728 mmHg 85%
    04:00 +9°C° 0 mm 1 mps 728 mmHg 85%
    05:00 +9°C° 0 mm 1 mps 728 mmHg 85%
    06:00 +10°C° 0 mm 1 mps 728 mmHg 84%
    07:00 +10°C° 0 mm 1 mps 729 mmHg 82%
    08:00 +11°C° 0 mm 1 mps 729 mmHg 80%
    09:00 +12°C° 0 mm 1 mps 729 mmHg 74%
    10:00 +13°C° 0 mm 1 mps 729 mmHg 67%
    11:00 +14°C° 0 mm 2 mps 729 mmHg 61%
    12:00 +15°C° 0 mm 2 mps 729 mmHg 59%
    13:00 +15°C° 0 mm 2 mps 729 mmHg 57%
    14:00 +14°C° 0 mm 3 mps 728 mmHg 55%
    15:00 +14°C° 0 mm 2 mps 728 mmHg 59%
    16:00 +13°C° 0 mm 2 mps 728 mmHg 64%
    17:00 +12°C° 0 mm 2 mps 728 mmHg 69%
    18:00 +12°C° 0 mm 1 mps 728 mmHg 71%
    19:00 +12°C° 0 mm 1 mps 729 mmHg 74%
    20:00 +11°C° 0 mm 1 mps 729 mmHg 76%
    21:00 +11°C° 0 mm 1 mps 729 mmHg 78%
    22:00 +10°C° 0 mm 1 mps 728 mmHg 79%
    23:00 +10°C° 0 mm 1 mps 728 mmHg 81%

    22 December, Saturday

    Time Temperature Precipitation Wind Pressure Humidity
    00:00 +10°C° 0 mm 1 mps 728 mmHg 82%
    01:00 +10°C° 0 mm 1 mps 727 mmHg 82%
    02:00 +9°C° 0 mm 1 mps 727 mmHg 83%
    03:00 +9°C° 0 mm 1 mps 727 mmHg 84%
    04:00 +9°C° 0 mm 1 mps 727 mmHg 85%
    05:00 +8°C° 0 mm 0 mps 727 mmHg 86%
    06:00 +10°C° 0 mm 1 mps 727 mmHg 84%
    07:00 +10°C° 0 mm 1 mps 727 mmHg 83%
    08:00 +11°C° 0 mm 1 mps 727 mmHg 81%
    09:00 +12°C° 0 mm 1 mps 727 mmHg 77%
    10:00 +13°C° 0 mm 2 mps 727 mmHg 72%
    11:00 +14°C° 0 mm 2 mps 727 mmHg 68%
    12:00 +13°C° 0.1 mm 3 mps 726 mmHg 67%
    13:00 +13°C° 0.1 mm 3 mps 726 mmHg 67%
    14:00 +14°C° 0.1 mm 4 mps 726 mmHg 67%
    15:00 +13°C° 0.1 mm 4 mps 726 mmHg 71%
    16:00 +12°C° 0.1 mm 3 mps 726 mmHg 75%
    17:00 +11°C° 0.1 mm 3 mps 726 mmHg 79%
    18:00 +12°C° 0 mm 2 mps 726 mmHg 81%
    19:00 +12°C° 0 mm 2 mps 726 mmHg 82%
    20:00 +10°C° 0 mm 2 mps 726 mmHg 84%
    21:00 +10°C° 0.1 mm 2 mps 726 mmHg 85%
    22:00 +10°C° 0.1 mm 2 mps 726 mmHg 85%
    23:00 +10°C° 0.1 mm 1 mps 726 mmHg 86%
    Show more